Holmes Reef Observation History
Time Wind Speed Temp Pressure Rel. Hum Rain
05/09:00pm ESE 26-31 kts 25.4°c 1017.1 hPa n/a n/a
05/08:30pm SE 26-30 kts 25.4°c 1017.1 hPa n/a n/a
05/08:00pm ESE 26-30 kts 25.4°c 1017.0 hPa n/a n/a
05/07:30pm ESE 26-31 kts 25.4°c 1016.7 hPa n/a n/a
05/07:00pm ESE 26-31 kts 25.4°c 1016.4 hPa n/a n/a
05/06:30pm ESE 25-29 kts 25.4°c 1016.2 hPa n/a n/a
05/06:00pm ESE 25-30 kts 25.5°c 1015.9 hPa n/a n/a
05/05:30pm SE 26-31 kts 25.5°c 1015.4 hPa n/a n/a
05/05:00pm SE 28-31 kts 25.4°c 1015.1 hPa n/a n/a
05/04:30pm SE 27-31 kts 25.4°c 1014.8 hPa n/a n/a
05/04:00pm SE 28-32 kts 25.3°c 1014.5 hPa n/a n/a
05/03:30pm SE 26-30 kts 25.3°c 1014.5 hPa n/a n/a
05/03:00pm SE 26-32 kts 25.1°c 1014.8 hPa n/a n/a
05/02:30pm SE 25-30 kts 25.1°c 1014.9 hPa n/a n/a
05/02:00pm SE 27-31 kts 25.2°c 1015.1 hPa n/a n/a
05/01:30pm SE 27-31 kts 25.3°c 1015.2 hPa n/a n/a
05/01:00pm SE 26-31 kts 25.3°c 1015.4 hPa n/a n/a
05/12:30pm SE 27-31 kts 25.2°c 1015.7 hPa n/a n/a
05/12:00pm SE 27-31 kts 25.1°c 1016.1 hPa n/a n/a
05/11:30am ESE 26-31 kts 25.0°c 1016.5 hPa n/a n/a
05/11:00am SE 24-29 kts 25.1°c 1016.9 hPa n/a n/a
05/10:30am ESE 26-30 kts 24.3°c 1017.0 hPa n/a n/a
05/10:00am SE 26-31 kts 25.4°c 1017.2 hPa n/a n/a
05/09:30am SE 25-29 kts 24.5°c 1017.4 hPa n/a n/a
05/09:00am SE 24-29 kts 25.1°c 1017.1 hPa n/a n/a
05/08:30am ESE 26-29 kts 25.4°c 1016.9 hPa n/a n/a
05/08:00am ESE 26-30 kts 25.2°c 1016.6 hPa n/a n/a
05/07:33am ESE 25-35 kts 24.9°c 1016.4 hPa n/a n/a
05/07:30am ESE 24-29 kts 25.2°c 1016.4 hPa n/a n/a
05/07:00am ESE 27-32 kts 25.1°c 1015.9 hPa n/a n/a
05/06:30am ESE 24-29 kts 25.1°c 1015.5 hPa n/a n/a
05/06:00am ESE 27-33 kts 25.1°c 1015.3 hPa n/a n/a
05/05:30am ESE 27-31 kts 25.1°c 1015.2 hPa n/a n/a
05/05:00am SE 26-31 kts 24.9°c 1015.0 hPa n/a n/a
05/04:30am SE 25-31 kts 25.1°c 1014.9 hPa n/a n/a
05/04:00am ESE 27-32 kts 24.9°c 1014.8 hPa n/a n/a
05/03:30am ESE 27-33 kts 24.8°c 1014.8 hPa n/a n/a
05/03:00am SE 26-32 kts 25.0°c 1015.0 hPa n/a n/a
05/02:30am ESE 26-31 kts 24.6°c 1015.2 hPa n/a n/a
05/02:00am SE 26-31 kts 24.5°c 1015.6 hPa n/a n/a
05/01:30am ESE 28-33 kts 24.1°c 1016.1 hPa n/a n/a
05/01:00am ESE 25-29 kts 24.8°c 1016.5 hPa n/a n/a
05/12:30am ESE 26-30 kts 25.5°c 1016.7 hPa n/a n/a
05/12:00am SE 26-33 kts 25.2°c 1017.0 hPa n/a n/a
Time Wind Speed Temp Pressure Rel. Hum Rain
04/11:30pm SE 25-29 kts 24.7°c 1017.2 hPa n/a n/a
04/11:00pm SE 25-29 kts 25.0°c 1017.6 hPa n/a n/a
04/10:30pm SE 26-30 kts 24.8°c 1017.7 hPa n/a n/a
04/10:00pm SE 24-28 kts 25.1°c 1018.0 hPa n/a n/a
04/09:30pm SE 26-29 kts 24.6°c 1018.0 hPa n/a n/a
04/09:00pm SE 25-28 kts 24.7°c 1018.1 hPa n/a n/a
04/08:30pm SE 25-29 kts 24.6°c 1018.0 hPa n/a n/a
04/08:00pm SE 25-28 kts 23.9°c 1018.0 hPa n/a n/a
04/07:30pm SE 25-29 kts 23.8°c 1018.1 hPa n/a n/a
04/07:00pm SE 25-29 kts 24.0°c 1017.6 hPa n/a n/a
04/06:30pm SE 25-29 kts 24.4°c 1017.1 hPa n/a n/a
04/06:00pm SE 25-30 kts 24.2°c 1016.9 hPa n/a n/a
04/05:30pm SE 25-31 kts 22.8°c 1016.8 hPa n/a n/a
04/05:00pm SE 24-29 kts 23.7°c 1016.4 hPa n/a n/a
04/04:30pm SE 23-29 kts 23.0°c 1016.3 hPa n/a n/a
04/04:00pm SE 24-28 kts 23.4°c 1015.9 hPa n/a n/a
04/03:30pm SE 24-29 kts 24.2°c 1015.7 hPa n/a n/a
04/03:00pm SE 24-28 kts 24.1°c 1015.7 hPa n/a n/a
04/02:30pm SE 23-27 kts 24.1°c 1015.8 hPa n/a n/a
04/02:00pm SE 24-28 kts 23.7°c 1016.1 hPa n/a n/a
04/01:30pm SE 26-30 kts 23.6°c 1016.5 hPa n/a n/a
04/01:00pm SSE 23-28 kts 24.2°c 1016.8 hPa n/a n/a
04/12:30pm SE 24-28 kts 24.2°c 1017.0 hPa n/a n/a
04/12:00pm SE 24-27 kts 24.4°c 1017.4 hPa n/a n/a
04/11:30am SE 23-27 kts 24.6°c 1017.8 hPa n/a n/a
04/11:00am SE 25-28 kts 24.3°c 1018.0 hPa n/a n/a
04/10:30am SE 24-27 kts 24.2°c 1018.1 hPa n/a n/a
04/10:00am SE 25-29 kts 24.2°c 1018.0 hPa n/a n/a
04/09:30am SE 24-29 kts 24.4°c 1018.1 hPa n/a n/a
04/09:00am SE 24-29 kts 24.1°c 1018.1 hPa n/a n/a
04/08:30am SE 24-28 kts 23.8°c 1017.9 hPa n/a n/a
04/08:00am SE 23-27 kts 24.3°c 1017.4 hPa n/a n/a
04/07:30am SE 23-28 kts 24.0°c 1017.2 hPa n/a n/a
04/07:00am SE 25-29 kts 24.1°c 1016.8 hPa n/a n/a
04/06:30am SE 24-28 kts 24.1°c 1016.4 hPa n/a n/a
04/06:00am SE 24-28 kts 24.1°c 1016.1 hPa n/a n/a
04/05:30am SE 26-28 kts 23.9°c 1015.8 hPa n/a n/a
04/02:00am SE 25-30 kts 24.5°c 1016.1 hPa n/a n/a
04/01:30am SE 22-26 kts 24.7°c 1016.7 hPa n/a n/a
04/01:00am SE 22-26 kts 24.8°c 1017.0 hPa n/a n/a
04/12:30am SE 22-25 kts 24.8°c 1017.2 hPa n/a n/a
04/12:00am SE 21-25 kts 24.9°c 1017.5 hPa n/a n/a
Time Wind Speed Temp Pressure Rel. Hum Rain
03/11:30pm SE 22-25 kts 24.8°c 1017.8 hPa n/a n/a
03/11:00pm SE 22-26 kts 24.7°c 1017.9 hPa n/a n/a
03/10:30pm SE 23-26 kts 24.9°c 1018.1 hPa n/a n/a
03/10:00pm SE 23-26 kts 24.8°c 1018.1 hPa n/a n/a
03/09:30pm SE 23-27 kts 24.8°c 1018.3 hPa n/a n/a
03/09:00pm SE 22-25 kts 24.9°c 1018.2 hPa n/a n/a
03/08:30pm SE 23-28 kts 24.9°c 1017.9 hPa n/a n/a
03/08:00pm SE 23-28 kts 25.1°c 1017.7 hPa n/a n/a
03/07:30pm SE 24-28 kts 24.9°c 1017.3 hPa n/a n/a
03/07:00pm SE 23-28 kts 25.1°c 1016.9 hPa n/a n/a
03/06:30pm SE 24-27 kts 24.9°c 1016.4 hPa n/a n/a
03/06:00pm SE 24-28 kts 25.0°c 1016.2 hPa n/a n/a
03/05:30pm SE 23-26 kts 25.1°c 1016.0 hPa n/a n/a
03/05:00pm SE 22-27 kts 25.1°c 1015.7 hPa n/a n/a
03/04:30pm SE 23-27 kts 25.1°c 1015.4 hPa n/a n/a
03/04:00pm SE 22-27 kts 25.0°c 1015.4 hPa n/a n/a
03/03:30pm SE 25-27 kts 25.1°c 1015.2 hPa n/a n/a
03/03:00pm SE 24-28 kts 25.1°c 1015.2 hPa n/a n/a
03/02:30pm SE 24-28 kts 25.1°c 1015.4 hPa n/a n/a
03/02:00pm SE 22-27 kts 25.2°c 1015.4 hPa n/a n/a
03/01:30pm SE 24-29 kts 25.4°c 1015.6 hPa n/a n/a
03/01:00pm SE 25-28 kts 25.3°c 1015.9 hPa n/a n/a
03/12:30pm SE 24-28 kts 25.3°c 1016.4 hPa n/a n/a
03/12:00pm SE 22-26 kts 25.4°c 1016.9 hPa n/a n/a
03/11:30am ESE 24-28 kts 25.5°c 1017.2 hPa n/a n/a
03/11:00am SE 23-27 kts 25.5°c 1017.4 hPa n/a n/a
03/10:30am ESE 24-27 kts 25.5°c 1017.8 hPa n/a n/a
03/10:00am SE 24-29 kts 25.5°c 1017.8 hPa n/a n/a
03/09:30am ESE 25-29 kts 25.5°c 1017.7 hPa n/a n/a
03/09:00am SE 25-29 kts 25.6°c 1017.7 hPa n/a n/a
03/08:30am SE 25-29 kts 25.5°c 1017.6 hPa n/a n/a
03/08:00am SE 25-29 kts 25.5°c 1017.3 hPa n/a n/a
03/07:30am SE 25-29 kts 25.5°c 1017.2 hPa n/a n/a
03/07:00am ESE 24-28 kts 25.2°c 1017.0 hPa n/a n/a
03/06:30am SE 24-28 kts 25.3°c 1016.6 hPa n/a n/a
03/06:00am ESE 24-28 kts 25.2°c 1016.1 hPa n/a n/a
03/05:30am SE 25-29 kts 25.2°c 1015.7 hPa n/a n/a
03/05:00am SE 25-30 kts 25.2°c 1015.5 hPa n/a n/a
03/04:30am SE 24-28 kts 24.9°c 1015.4 hPa n/a n/a
03/04:00am SE 26-30 kts 25.1°c 1015.3 hPa n/a n/a
03/03:30am SE 23-27 kts 25.0°c 1015.3 hPa n/a n/a
03/03:00am SE 24-28 kts 25.0°c 1015.4 hPa n/a n/a
03/02:30am ESE 23-27 kts 24.9°c 1015.6 hPa n/a n/a
03/02:00am ESE 23-28 kts 24.8°c 1015.8 hPa n/a n/a
03/01:30am ESE 23-26 kts 24.9°c 1016.3 hPa n/a n/a
03/01:00am ESE 22-25 kts 24.9°c 1016.7 hPa n/a n/a
03/12:30am ESE 22-24 kts 25.0°c 1017.1 hPa n/a n/a
03/12:00am SE 22-26 kts 25.0°c 1017.1 hPa n/a n/a